Regional Weather Roundup
Issued by NWS Charleston, SC

Current Version | Previous Version | Graphics & Text | Print | Product List | Glossary On
Versions: 1 2 3 4 5 6 7 8 9 10 11 12 13 14 15 16 17 18 19 20 21 22 23 24 25 26 27 28 29 30 31 32 33 34 35 36 37 38 39 40 41 42 43 44 45 46 47 48 49 50
000
ASUS42 KCHS 210212
RWRCHS

REGIONAL WEATHER ROUNDUP
NATIONAL WEATHER SERVICE CHARLESTON SC
900 PM EST MON FEB 20 2017

NOTE: "FAIR" INDICATES FEW OR NO CLOUDS BELOW 12,000 FEET WITH NO
SIGNIFICANT WEATHER AND/OR OBSTRUCTIONS TO VISIBILITY.

NOT ALL STATIONS ARE QUALITY CONTROLLED. USE DATA WITH CAUTION...
ESPECIALLY DEWPOINT OBSERVATIONS.

SCZ027-030-031-034>040-042>050-210300-
...SOUTHEAST SOUTH CAROLINA...

CITY           SKY/WX    TMP DP  RH WIND       PRES   REMARKS
N CHARLESTON   CLOUDY    58  49  72 SE3       30.18S
WATERFRONT PRK   N/A     59  56  89 CALM      30.17S
MOUNT PLEASANT LGT RAIN  54  54 100 CALM      30.18F
JOHNS ISLAND   FAIR      57  54  88 CALM      30.19R
PINOPOLIS        N/A     63  48  59 VRB2      30.08F
MONCKS CORNER  FAIR      55  46  71 CALM      30.18S
SUMMERVILLE    FAIR      57  46  67 CALM      30.19S
BEAUFORT MCAS  PTCLDY    56  55  97 E3        30.18R
BEAUFORT ARPT  FAIR      55  55 100 NE3       30.17S
HILTON HEAD IS PTCLDY    55  54  94 CALM      30.18S
WALTERBORO     MOCLDY    57  46  67 SE3       30.19R
ALLENDALE      FAIR      61  50  67 CALM      30.16R

...SOUTHERN MIDLANDS AND PEE DEE...

CITY           SKY/WX    TMP DP  RH WIND       PRES   REMARKS
GEORGETOWN     FAIR      54  54 100 CALM      30.20S
KINGSTREE      FAIR      55  48  76 E3        30.18S
ORANGEBURG     CLOUDY    58  45  62 SE3       30.17R
BARNWELL       FAIR      57  50  77 CALM      30.17R
AIKEN          FAIR      52  43  71 CALM      30.20R
MANNING        FAIR      54  32  43 MISG      30.18S
COLUMBIA       PTCLDY    55  46  71 CALM      30.16S
SUMTER         CLOUDY    57  45  63 CALM      30.14S
FLORENCE       PTCLDY    59  49  69 SE5       30.18S
MYRTLE BEACH   CLEAR     57  52  82 E7        30.20S
N MYRTLE BEACH MOCLDY    56  51  84 E5        30.19S

$$

GAZ063-065-086>088-099>101-113>116-118-119-134>141-150-210300-
...SOUTHEAST GEORGIA...

CITY           SKY/WX    TMP DP  RH WIND       PRES   REMARKS
SAVANNAH ARPT  CLOUDY    61  52  72 CALM      30.17R
HUNTER AAF     CLOUDY    59  56  88 CALM      30.15R
FORT STEWART   PTCLDY    57  49  72 CALM      30.14S
STATESBORO     CLOUDY    63  51  65 CALM      30.16S
SYLVANIA       MOCLDY   N/A N/A N/A CALM      30.17S
CLAXTON        FAIR     N/A N/A N/A CALM      30.17R

...CSRA...CENTRAL AND FAR SOUTHEAST GEORGIA...

CITY           SKY/WX    TMP DP  RH WIND       PRES   REMARKS
THOMSON        CLOUDY    56  52  85 CALM      30.21S
AUGUSTA-BUSH   PTCLDY    57  46  66 CALM      30.16R
AUGUSTA-DANIEL CLOUDY    64  44  48 CALM      30.17R
SWAINSBORO     FAIR      59  52  77 CALM      30.16S
VIDALIA        PTCLDY    64  55  72 SE6       30.15S
EASTMAN        FAIR      60  46  60 CALM      30.16S
HAZLEHURST     FAIR      67  54  62 SE5       30.13S
ALMA           CLOUDY    65  51  60 E7        30.14R
WAYCROSS       CLOUDY    66  54  64 E7        30.14S
JESUP          FAIR      59  48  67 CALM      30.16S
BAXLEY         FAIR      64  54  68 SE6       30.15R
BRUNSWICK      PTCLDY    55  55 100 CALM      30.16F FOG
SAINT SIMONS   MOCLDY    60  56  86 E6        30.16R

$$

SCZ027-028-034-036>038-045-046-048>050-GAZ119-141-210300-
...LAKE AND SUPPLEMENTAL COASTAL OBSERVATIONS...

STATION/POSITION TIME  TEMP    WIND        PRES    WAVE   SWELL
                       AIR SEA DIR/SP/G            HT/PER HT/PER/DIR
                 (UTC) (F)     (DEG/KT/KT) (MB)    (FT/S) (FT/S/D)
WINYAH BAY       NOT AVBL
LAKE MURRAY      0120   58        CALM     1020.7
ACE BASIN NERRS  NOT AVBL
FORT PULASKI     0148   60 61  100/  4/  5 1021.8R
SAPELO ISLAND    0100   59      90/  4     1021.0

$$

ANZ835-935-AMZ111-154-330-350-352-354-370-450-454-472-210300-
...C-MAN AND BUOY OBSERVATIONS...

STATION/POSITION TIME  TEMP    WIND        PRES    WAVE   SWELL
                       AIR SEA DIR/SP/G            HT/PER HT/PER/DIR
                 (UTC) (F)     (DEG/KT/KT) (MB)    (FT/S) (FT/S/D)
BUOY 41004       0150   67 67   50/  6/  6 1021.7R   2/ 4   2/ 60/ 4
BUOY 41008       0150   62 62   80/  6/  8 1021.2R   1/ 6
FOLLY BEACH CMAN 0100   60      50/  2/  2 1022.4R
CAPERS NEARSHORE NOT AVBL
FRIPP NEARSHORE  0108   61 61  130/  6/  6 1021.3R


STATION/POSITION TIME  TEMP    WIND        PRES    WAVE   SWELL
                       AIR SEA DIR/SP/G            HT/PER HT/PER/DIR
                 (UTC) (F)     (DEG/KT/KT) (MB)    (FT/S) (FT/S/D)
5E ST. MARYS GA  0130      64                N/A     1/ 5
FRYING PAN BUOY  0150   66 65   60/ 10/ 12 1021.9S   4/ 6   3/ 60/ 6
BUOY 41025       0150   59 69   40/ 17/ 19 1023.2R   4/ 5   2/ 50/10
CAPE LOOKOUT NC  0100   57      50/ 13/ 15 1022.6S
BUOY 41002       0150   69 71   20/ 14/ 17 1020.3R   5/ 6   2/ 30/ 9
BUOY 41010       NOT AVBL
ST AUGUSTINE FL  0200   67 69   60/  9/ 10 1021.5R


$$




USA.gov is the U.S. government's official web portal to all federal, state and local government web resources and services.